Location: Unspecified
(49.8670°N, 0.0000°E)
Time: 23:19:32
(UTC+00:00)

ISS - Pass Details

Date: 29 May 2019
Orbit: 408 x 419 km, 51.6° (Epoch: 21 June)

Event Time Altitude Azimuth Distance (km) Brightness Sun altitude
Rises 22:51:52 0° 285° (WNW) 2,361 0.5 -17.0°
Reaches altitude 10° 22:54:19 10° 267° (W) 1,497 -0.8 -17.1°
Enters shadow 22:56:10 19° 235° (SW) 1,082 -1.9 -17.2°
